Time,TemperatureF,DewpointF,PressureIn,WindDirection,WindDirectionDegrees,WindSpeedMPH,WindSpeedGustMPH,Humidity,HourlyPrecipIn,Conditions,Clouds,dailyrainin,SoftwareType,DateUTC
2013-01-03 00:02:00,38.0,23.0,30.04,South,176,0.0,-999.0,54,-99.99,,,-99.99,,2013-01-03 07:02:00,
2013-01-03 00:12:00,38.0,23.0,30.04,South,176,0.0,-999.0,54,-99.99,,,-99.99,,2013-01-03 07:12:00,
2013-01-03 00:22:00,38.0,23.0,30.04,South,176,0.0,-999.0,54,-99.99,,,-99.99,,2013-01-03 07:22:00,
2013-01-03 00:32:00,37.0,22.0,30.03,South,176,0.0,-999.0,54,-99.99,,,-99.99,,2013-01-03 07:32:00,
2013-01-03 00:42:00,37.0,22.0,30.03,South,176,0.0,-999.0,54,-99.99,,,-99.99,,2013-01-03 07:42:00,
2013-01-03 00:52:00,37.0,22.0,30.03,South,176,0.0,-999.0,54,-99.99,,,-99.99,,2013-01-03 07:52:00,
2013-01-03 01:02:00,36.0,22.0,30.03,South,170,0.0,-999.0,57,-99.99,,,-99.99,,2013-01-03 08:02:00,
2013-01-03 01:11:00,36.0,22.0,30.03,South,170,0.0,-999.0,57,-99.99,,,-99.99,,2013-01-03 08:11:00,
2013-01-03 01:22:00,35.0,23.0,30.04,South,170,0.0,-999.0,61,-99.99,,,-99.99,,2013-01-03 08:22:00,
2013-01-03 01:32:00,34.0,23.0,30.03,South,170,2.0,-999.0,63,-99.99,,,-99.99,,2013-01-03 08:32:00,
2013-01-03 01:42:00,34.0,23.0,30.03,South,170,2.0,-999.0,63,-99.99,,,-99.99,,2013-01-03 08:42:00,
2013-01-03 01:52:00,33.0,23.0,30.03,South,170,3.0,-999.0,65,-99.99,,,-99.99,,2013-01-03 08:52:00,
2013-01-03 02:02:00,32.0,23.0,30.03,South,170,2.0,-999.0,68,-99.99,,,-99.99,,2013-01-03 09:02:00,
2013-01-03 02:12:00,32.0,23.0,30.03,South,170,2.0,-999.0,68,-99.99,,,-99.99,,2013-01-03 09:12:00,
2013-01-03 02:22:00,31.0,22.0,30.03,South,170,3.0,-999.0,69,-99.99,,,-99.99,,2013-01-03 09:22:00,
2013-01-03 02:33:00,31.0,23.0,30.03,South,171,1.0,-999.0,71,-99.99,,,-99.99,,2013-01-03 09:33:00,
2013-01-03 02:42:00,31.0,23.0,30.03,South,171,1.0,-999.0,71,-99.99,,,-99.99,,2013-01-03 09:42:00,
2013-01-03 02:52:00,30.0,21.0,30.03,South,171,0.0,-999.0,70,-99.99,,,-99.99,,2013-01-03 09:52:00,
2013-01-03 03:02:00,30.0,22.0,30.03,South,170,0.0,-999.0,71,-99.99,,,-99.99,,2013-01-03 10:02:00,
2013-01-03 03:12:00,30.0,22.0,30.03,South,170,0.0,-999.0,71,-99.99,,,-99.99,,2013-01-03 10:12:00,
2013-01-03 03:22:00,29.0,21.0,30.03,South,170,0.0,-999.0,73,-99.99,,,-99.99,,2013-01-03 10:22:00,
2013-01-03 03:32:00,29.0,22.0,30.04,South,170,0.0,-999.0,74,-99.99,,,-99.99,,2013-01-03 10:32:00,
2013-01-03 03:42:00,29.0,22.0,30.04,South,170,0.0,-999.0,74,-99.99,,,-99.99,,2013-01-03 10:42:00,
2013-01-03 03:52:00,29.0,22.0,30.04,South,170,1.0,-999.0,76,-99.99,,,-99.99,,2013-01-03 10:52:00,
2013-01-03 04:02:00,29.0,22.0,30.05,South,171,0.0,-999.0,76,-99.99,,,-99.99,,2013-01-03 11:02:00,
2013-01-03 04:11:00,29.0,22.0,30.05,South,171,0.0,-999.0,76,-99.99,,,-99.99,,2013-01-03 11:11:00,
2013-01-03 04:22:00,30.0,23.0,30.05,NW,313,3.0,-999.0,76,-99.99,,,-99.99,,2013-01-03 11:22:00,
2013-01-03 04:32:00,30.0,22.0,30.04,NW,304,4.0,-999.0,71,-99.99,,,-99.99,,2013-01-03 11:32:00,
2013-01-03 04:42:00,30.0,22.0,30.04,NW,304,4.0,-999.0,71,-99.99,,,-99.99,,2013-01-03 11:42:00,
2013-01-03 04:52:00,31.0,22.0,30.03,NW,304,3.0,-999.0,69,-99.99,,,-99.99,,2013-01-03 11:52:00,
2013-01-03 05:02:00,31.0,22.0,30.03,NW,304,1.0,-999.0,68,-99.99,,,-99.99,,2013-01-03 12:02:00,
2013-01-03 05:12:00,31.0,22.0,30.03,NW,304,1.0,-999.0,68,-99.99,,,-99.99,,2013-01-03 12:12:00,
2013-01-03 05:22:00,31.0,22.0,30.03,NW,304,2.0,-999.0,68,-99.99,,,-99.99,,2013-01-03 12:22:00,
2013-01-03 05:32:00,31.0,22.0,30.02,NW,304,1.0,-999.0,69,-99.99,,,-99.99,,2013-01-03 12:32:00,
2013-01-03 05:42:00,31.0,22.0,30.02,NW,304,1.0,-999.0,69,-99.99,,,-99.99,,2013-01-03 12:42:00,
2013-01-03 05:52:00,31.0,22.0,30.02,NW,304,2.0,-999.0,69,-99.99,,,-99.99,,2013-01-03 12:52:00,
2013-01-03 06:02:00,32.0,23.0,30.02,NW,304,0.0,-999.0,69,-99.99,,,-99.99,,2013-01-03 13:02:00,
2013-01-03 06:12:00,32.0,23.0,30.02,NW,304,0.0,-999.0,69,-99.99,,,-99.99,,2013-01-03 13:12:00,
2013-01-03 06:22:00,32.0,23.0,30.03,NW,304,0.0,-999.0,69,-99.99,,,-99.99,,2013-01-03 13:22:00,
2013-01-03 06:32:00,31.0,22.0,30.02,NW,304,0.0,-999.0,69,-99.99,,,-99.99,,2013-01-03 13:32:00,
2013-01-03 06:42:00,31.0,22.0,30.02,NW,304,0.0,-999.0,69,-99.99,,,-99.99,,2013-01-03 13:42:00,
2013-01-03 06:52:00,31.0,22.0,30.04,NW,304,0.0,-999.0,70,-99.99,,,-99.99,,2013-01-03 13:52:00,
2013-01-03 07:02:00,30.0,22.0,30.04,NW,304,0.0,-999.0,71,-99.99,,,-99.99,,2013-01-03 14:02:00,
2013-01-03 07:12:00,30.0,22.0,30.04,NW,304,0.0,-999.0,71,-99.99,,,-99.99,,2013-01-03 14:12:00,
2013-01-03 07:22:00,29.0,21.0,30.05,NW,304,0.0,-999.0,73,-99.99,,,-99.99,,2013-01-03 14:22:00,
2013-01-03 07:32:00,29.0,22.0,30.04,NW,304,0.0,-999.0,74,-99.99,,,-99.99,,2013-01-03 14:32:00,
2013-01-03 07:42:00,29.0,22.0,30.04,NW,304,0.0,-999.0,74,-99.99,,,-99.99,,2013-01-03 14:42:00,
2013-01-03 07:53:00,29.0,22.0,30.04,NW,304,0.0,-999.0,74,-99.99,,,-99.99,,2013-01-03 14:53:00,
2013-01-03 08:02:00,35.0,23.0,30.03,SSE,157,8.0,-999.0,61,-99.99,,,-99.99,,2013-01-03 15:02:00,
2013-01-03 08:12:00,35.0,23.0,30.03,SSE,157,8.0,-999.0,61,-99.99,,,-99.99,,2013-01-03 15:12:00,
2013-01-03 08:22:00,36.0,21.0,30.05,SSE,149,9.0,-999.0,55,-99.99,,,-99.99,,2013-01-03 15:22:00,
2013-01-03 08:33:00,37.0,21.0,30.06,SE,140,10.0,-999.0,51,-99.99,,,-99.99,,2013-01-03 15:33:00,
2013-01-03 09:03:00,37.0,20.0,30.08,SSE,158,10.0,-999.0,50,-99.99,,,-99.99,,2013-01-03 16:03:00,
2013-01-03 09:12:00,37.0,20.0,30.08,SSE,158,10.0,-999.0,50,-99.99,,,-99.99,,2013-01-03 16:12:00,
2013-01-03 09:22:00,37.0,20.0,30.09,SSE,150,10.0,-999.0,50,-99.99,,,-99.99,,2013-01-03 16:22:00,
2013-01-03 09:33:00,37.0,21.0,30.09,SE,127,10.0,-999.0,51,-99.99,,,-99.99,,2013-01-03 16:33:00,
2013-01-03 09:43:00,37.0,21.0,30.09,SE,127,10.0,-999.0,51,-99.99,,,-99.99,,2013-01-03 16:43:00,
2013-01-03 09:52:00,37.0,21.0,30.10,SE,146,10.0,-999.0,52,-99.99,,,-99.99,,2013-01-03 16:52:00,
2013-01-03 10:02:00,37.0,21.0,30.11,SSE,157,9.0,-999.0,53,-99.99,,,-99.99,,2013-01-03 17:02:00,
2013-01-03 10:12:00,37.0,21.0,30.11,SSE,157,9.0,-999.0,53,-99.99,,,-99.99,,2013-01-03 17:12:00,
2013-01-03 10:22:00,40.0,24.0,30.11,SSE,157,7.0,-999.0,53,-99.99,,,-99.99,,2013-01-03 17:22:00,
2013-01-03 10:33:00,41.0,23.0,30.11,SSE,157,7.0,-999.0,49,-99.99,,,-99.99,,2013-01-03 17:33:00,
2013-01-03 10:42:00,41.0,23.0,30.11,SSE,157,7.0,-999.0,49,-99.99,,,-99.99,,2013-01-03 17:42:00,
2013-01-03 10:52:00,40.0,23.0,30.11,SSW,195,5.0,-999.0,50,-99.99,,,-99.99,,2013-01-03 17:52:00,
2013-01-03 11:03:00,42.0,24.0,30.10,South,180,5.0,-999.0,49,-99.99,,,-99.99,,2013-01-03 18:03:00,
2013-01-03 11:12:00,42.0,24.0,30.10,South,180,5.0,-999.0,49,-99.99,,,-99.99,,2013-01-03 18:12:00,
2013-01-03 11:22:00,44.0,25.0,30.09,South,179,2.0,-999.0,47,-99.99,,,-99.99,,2013-01-03 18:22:00,
2013-01-03 11:33:00,44.0,25.0,30.09,SE,146,3.0,-999.0,47,-99.99,,,-99.99,,2013-01-03 18:33:00,
2013-01-03 11:42:00,44.0,25.0,30.09,SE,146,3.0,-999.0,47,-99.99,,,-99.99,,2013-01-03 18:42:00,
2013-01-03 11:53:00,44.0,25.0,30.09,SE,135,3.0,-999.0,46,-99.99,,,-99.99,,2013-01-03 18:53:00,
2013-01-03 12:03:00,45.0,25.0,30.09,ESE,103,7.0,-999.0,46,-99.99,,,-99.99,,2013-01-03 19:03:00,
2013-01-03 12:12:00,45.0,25.0,30.09,ESE,103,7.0,-999.0,46,-99.99,,,-99.99,,2013-01-03 19:12:00,
2013-01-03 12:52:00,44.0,26.0,30.08,SSE,162,7.0,-999.0,48,-99.99,,,-99.99,,2013-01-03 19:52:00,
2013-01-03 13:02:00,45.0,29.0,30.06,ESE,119,9.0,-999.0,53,-99.99,,,-99.99,,2013-01-03 20:02:00,
2013-01-03 13:12:00,45.0,29.0,30.06,ESE,119,9.0,-999.0,53,-99.99,,,-99.99,,2013-01-03 20:12:00,
2013-01-03 13:22:00,43.0,29.0,30.06,SE,127,9.0,-999.0,57,-99.99,,,-99.99,,2013-01-03 20:22:00,
2013-01-03 13:33:00,44.0,29.0,30.06,SSE,148,9.0,-999.0,56,-99.99,,,-99.99,,2013-01-03 20:33:00,
2013-01-03 13:42:00,44.0,29.0,30.06,SSE,148,9.0,-999.0,56,-99.99,,,-99.99,,2013-01-03 20:42:00,
2013-01-03 13:53:00,45.0,29.0,30.06,SE,131,7.0,-999.0,54,-99.99,,,-99.99,,2013-01-03 20:53:00,
2013-01-03 14:02:00,45.0,31.0,30.06,SE,138,8.0,-999.0,57,-99.99,,,-99.99,,2013-01-03 21:02:00,
2013-01-03 14:12:00,45.0,31.0,30.06,SE,138,8.0,-999.0,57,-99.99,,,-99.99,,2013-01-03 21:12:00,
2013-01-03 14:22:00,44.0,31.0,30.06,SE,133,7.0,-999.0,59,-99.99,,,-99.99,,2013-01-03 21:22:00,
2013-01-03 14:34:00,44.0,31.0,30.06,SSE,147,8.0,-999.0,59,-99.99,,,-99.99,,2013-01-03 21:34:00,
2013-01-03 14:46:00,44.0,31.0,30.06,SSE,147,8.0,-999.0,59,-99.99,,,-99.99,,2013-01-03 21:46:00,
2013-01-03 14:52:00,44.0,31.0,30.06,SSE,149,7.0,-999.0,60,-99.99,,,-99.99,,2013-01-03 21:52:00,
2013-01-03 15:02:00,43.0,30.0,30.06,SSE,157,7.0,-999.0,61,-99.99,,,-99.99,,2013-01-03 22:02:00,
2013-01-03 15:12:00,43.0,30.0,30.06,SSE,157,7.0,-999.0,61,-99.99,,,-99.99,,2013-01-03 22:12:00,
2013-01-03 15:22:00,42.0,31.0,30.06,SE,143,8.0,-999.0,64,-99.99,,,-99.99,,2013-01-03 22:22:00,
2013-01-03 15:32:00,42.0,32.0,30.06,SE,134,8.0,-999.0,67,-99.99,,,-99.99,,2013-01-03 22:32:00,
2013-01-03 15:42:00,42.0,32.0,30.06,SE,134,8.0,-999.0,67,-99.99,,,-99.99,,2013-01-03 22:42:00,
2013-01-03 15:52:00,41.0,31.0,30.07,SE,146,9.0,-999.0,68,-99.99,,,-99.99,,2013-01-03 22:52:00,
2013-01-03 16:02:00,40.0,31.0,30.08,SE,142,10.0,-999.0,71,-99.99,,,-99.99,,2013-01-03 23:02:00,
2013-01-03 16:12:00,40.0,31.0,30.08,SE,142,10.0,-999.0,71,-99.99,,,-99.99,,2013-01-03 23:12:00,
2013-01-03 16:22:00,40.0,32.0,30.08,SE,146,9.0,-999.0,73,-99.99,,,-99.99,,2013-01-03 23:22:00,
2013-01-03 16:32:00,38.0,30.0,30.09,SE,140,9.0,-999.0,74,-99.99,,,-99.99,,2013-01-03 23:32:00,
2013-01-03 16:42:00,38.0,30.0,30.09,SE,140,9.0,-999.0,74,-99.99,,,-99.99,,2013-01-03 23:42:00,
2013-01-03 16:52:00,37.0,31.0,30.09,SE,142,7.0,-999.0,78,-99.99,,,-99.99,,2013-01-03 23:52:00,
2013-01-03 17:02:00,36.0,30.0,30.09,SE,140,7.0,-999.0,79,-99.99,,,-99.99,,2013-01-04 00:02:00,
2013-01-03 17:12:00,36.0,30.0,30.09,SE,140,7.0,-999.0,79,-99.99,,,-99.99,,2013-01-04 00:12:00,
2013-01-03 17:22:00,36.0,30.0,30.10,SSE,147,7.0,-999.0,80,-99.99,,,-99.99,,2013-01-04 00:22:00,
2013-01-03 17:32:00,35.0,30.0,30.11,SSE,148,7.0,-999.0,81,-99.99,,,-99.99,,2013-01-04 00:32:00,
2013-01-03 17:42:00,35.0,30.0,30.11,SSE,148,7.0,-999.0,81,-99.99,,,-99.99,,2013-01-04 00:42:00,
2013-01-03 17:52:00,35.0,30.0,30.12,SE,142,7.0,-999.0,82,-99.99,,,-99.99,,2013-01-04 00:52:00,
2013-01-03 18:02:00,34.0,30.0,30.12,SSE,152,6.0,-999.0,84,-99.99,,,-99.99,,2013-01-04 01:02:00,
2013-01-03 18:12:00,34.0,30.0,30.12,SSE,152,6.0,-999.0,84,-99.99,,,-99.99,,2013-01-04 01:12:00,
2013-01-03 18:22:00,34.0,30.0,30.13,SE,135,7.0,-999.0,85,-99.99,,,-99.99,,2013-01-04 01:22:00,
2013-01-03 18:32:00,35.0,31.0,30.14,SSE,152,7.0,-999.0,84,-99.99,,,-99.99,,2013-01-04 01:32:00,
2013-01-03 18:42:00,35.0,31.0,30.14,SSE,152,7.0,-999.0,84,-99.99,,,-99.99,,2013-01-04 01:42:00,
2013-01-03 18:52:00,35.0,31.0,30.14,SE,134,7.0,-999.0,84,-99.99,,,-99.99,,2013-01-04 01:52:00,
2013-01-03 19:02:00,35.0,30.0,30.15,SE,145,6.0,-999.0,83,-99.99,,,-99.99,,2013-01-04 02:02:00,
2013-01-03 19:12:00,35.0,30.0,30.15,SE,145,6.0,-999.0,83,-99.99,,,-99.99,,2013-01-04 02:12:00,
2013-01-03 19:22:00,34.0,30.0,30.15,SE,142,7.0,-999.0,84,-99.99,,,-99.99,,2013-01-04 02:22:00,
2013-01-03 19:32:00,34.0,30.0,30.16,SE,141,8.0,-999.0,85,-99.99,,,-99.99,,2013-01-04 02:32:00,
2013-01-03 19:42:00,34.0,30.0,30.16,SE,141,8.0,-999.0,85,-99.99,,,-99.99,,2013-01-04 02:42:00,
2013-01-03 19:52:00,33.0,29.0,30.16,SSE,149,8.0,-999.0,86,-99.99,,,-99.99,,2013-01-04 02:52:00,
2013-01-03 20:02:00,33.0,29.0,30.16,SSE,149,8.0,-999.0,86,-99.99,,,-99.99,,2013-01-04 03:02:00,
2013-01-03 20:12:00,33.0,29.0,30.16,SSE,149,8.0,-999.0,86,-99.99,,,-99.99,,2013-01-04 03:12:00,
2013-01-03 20:22:00,33.0,29.0,30.16,SE,142,9.0,-999.0,86,-99.99,,,-99.99,,2013-01-04 03:22:00,
2013-01-03 20:32:00,32.0,28.0,30.17,SSE,150,10.0,-999.0,86,-99.99,,,-99.99,,2013-01-04 03:32:00,
2013-01-03 20:42:00,32.0,28.0,30.17,SSE,150,10.0,-999.0,86,-99.99,,,-99.99,,2013-01-04 03:42:00,
2013-01-03 20:52:00,32.0,29.0,30.17,SSE,153,10.0,-999.0,87,-99.99,,,-99.99,,2013-01-04 03:52:00,
2013-01-03 21:02:00,32.0,29.0,30.17,SE,136,9.0,-999.0,87,-99.99,,,-99.99,,2013-01-04 04:02:00,
2013-01-03 21:12:00,32.0,29.0,30.17,SE,136,9.0,-999.0,87,-99.99,,,-99.99,,2013-01-04 04:12:00,
2013-01-03 21:22:00,32.0,28.0,30.18,SE,139,9.0,-999.0,86,-99.99,,,-99.99,,2013-01-04 04:22:00,
2013-01-03 21:32:00,32.0,28.0,30.18,SE,141,10.0,-999.0,85,-99.99,,,-99.99,,2013-01-04 04:32:00,
2013-01-03 21:42:00,32.0,28.0,30.18,SE,141,10.0,-999.0,85,-99.99,,,-99.99,,2013-01-04 04:42:00,
2013-01-03 21:52:00,32.0,28.0,30.19,SSE,159,10.0,-999.0,84,-99.99,,,-99.99,,2013-01-04 04:52:00,
2013-01-03 22:03:00,32.0,27.0,30.19,SSE,155,9.0,-999.0,83,-99.99,,,-99.99,,2013-01-04 05:03:00,
2013-01-03 22:12:00,32.0,27.0,30.19,SSE,155,9.0,-999.0,83,-99.99,,,-99.99,,2013-01-04 05:12:00,
2013-01-03 22:22:00,32.0,27.0,30.19,South,182,9.0,-999.0,82,-99.99,,,-99.99,,2013-01-04 05:22:00,
2013-01-03 22:33:00,32.0,27.0,30.19,South,182,9.0,-999.0,82,-99.99,,,-99.99,,2013-01-04 05:33:00,
2013-01-03 22:42:00,32.0,27.0,30.19,South,182,9.0,-999.0,82,-99.99,,,-99.99,,2013-01-04 05:42:00,
2013-01-03 22:52:00,32.0,27.0,30.20,SE,142,9.0,-999.0,82,-99.99,,,-99.99,,2013-01-04 05:52:00,
2013-01-03 23:02:00,32.0,27.0,30.21,SSE,151,9.0,-999.0,81,-99.99,,,-99.99,,2013-01-04 06:02:00,
2013-01-03 23:12:00,32.0,27.0,30.21,SSE,151,9.0,-999.0,81,-99.99,,,-99.99,,2013-01-04 06:12:00,
2013-01-03 23:22:00,32.0,27.0,30.21,SE,144,7.0,-999.0,80,-99.99,,,-99.99,,2013-01-04 06:22:00,
2013-01-03 23:32:00,32.0,27.0,30.22,SSE,164,7.0,-999.0,80,-99.99,,,-99.99,,2013-01-04 06:32:00,
2013-01-03 23:42:00,32.0,27.0,30.22,SSE,164,7.0,-999.0,80,-99.99,,,-99.99,,2013-01-04 06:42:00,
2013-01-03 23:52:00,32.0,26.0,30.22,South,178,6.0,-999.0,79,-99.99,,,-99.99,,2013-01-04 06:52:00,